User: anonymous   Login
Location: Brno
(49.2000°N, 16.6330°E)
Time: 12:15:47
(UTC+01:00)
Language:

ISS - Orbit

View from above orbital plane
View from above orbital plane
View from above satellite
View from above satellite

Ground track
Ground track

The orbit data is extracted from the following two-line orbital elements,

1 25544U 98067A   17053.51161333  .00016717  00000-0  10270-3 0  9040
2 25544  51.6397 249.9637 0006316 223.9731 136.0919 15.54381329  3919
Epoch (UTC): 22 February 2017 12:16:43
Eccentricity: 0.0006316
inclination: 51.6397°
perigee height: 399 km
apogee height: 408 km
right ascension of ascending node: 249.9637°
argument of perigee: 223.9731°
revolutions per day: 15.54381329
mean anomaly at epoch: 136.0919°
orbit number at epoch: 391

The dashed part of the orbit path shows where the satellite is in the earth's shadow,  

DLR